Location: *
(50.9167°S, 179.4000°W)
Time: 19:10:55
(UTC+00:00)

CZ-2C R/B - Pass Details

Date: 24 June 2024
Orbit: 665 x 779 km, 98.4° (Epoch: 18 July)

Event Time Altitude Azimuth Distance (km) Brightness Sun altitude
Rises 05:31:57 0° 176° (S) 3,310 5.5 -13.7°
Reaches altitude 10° 05:35:03 10° 195° (SSW) 2,370 5.0 -14.2°
Maximum altitude 05:38:18 17° 233° (SW) 1,912 5.0 -14.7°
Drops below altitude 10° 05:41:32 10° 272° (W) 2,334 6.2 -15.1°
Sets 05:44:34 0° 291° (WNW) 3,236 7.6 -15.6°
